Terug naar catalogus

COSMOS 1823 DEB

ActiefLEO
NORAD 39825·DEBRIS·🇷🇺 Russia

Gelanceerd Feb 20, 1987 vanaf Plesetsk Cosmodrome

Loading…

Volgende Passages (komende 24 uur)

TLE

VerouderdSource: Space-Track

Epoch: Aug 17, 2026, 22:18 UTC

1 39825U 87020EZ  26229.92926483  .00000009  00000-0  18685-3 0  9998
2 39825  73.5984 283.1372 0024873 116.2259  59.5523 12.42937769996420

Volg COSMOS 1823 DEB in realtime met AllMySat

Download on the App Store